Flag for Finland Weather past 2 weeks in Rovaniemi, Finland

Now
54 °F

Clear.


Feels Like: 54 °F
Forecast: 50 / 64 °F
Wind: 2 mph from North

Location: Rovaniemi Airport

Current Time: Aug 3, 2015 at 3:57:20 AM

Latest Report: Aug 3, 2015 at 3:20 AM


Visibility: 10 mi

Pressure: 29.80 "Hg

Humidity: 94%

Dew point: 52 °F

Location of RovaniemiLocation

Historic Weather in Rovaniemi — Graph

°F

Rovaniemi temperature yesterday

Maximum temperature yesterday: 59 °F (at 1:50 PM)
Minimum temperature yesterday: 50 °F (at 3:20 AM)
Average temperature yesterday: 55 °F

Past Weeks' High & Low Weather Summary

 TemperatureHumidityPressure
High66 °F (Jul 26, 2:50 PM)100% (Jul 19, 6:50 AM)29.92 "Hg (Jul 19, 6:50 AM)
Low46 °F (Jul 23, 3:50 AM)52% (Jul 26, 2:50 PM)29.33 "Hg (Jul 30, 4:50 AM)
Average56 °F89%29.63 "Hg
* Reported Jul 19 2:20 AM — Aug 3 2:50 AM, Rovaniemi, Weather by CustomWeather, © 2015

Note: Actual official high and low records may vary slightly from our data, if they occured in-between our weather recording intervals... More about our weather records

Advertising

Rovaniemi weather history for previous 24 hours

 ConditionsComfort  
Time TempWeatherWind HumidityBarometerVisibility
2:50 AM
Mon, Aug 3
54 °FClear.3 mph100%29.77 "Hg10 mi
2:20 AM54 °FClear.3 mph100%29.77 "Hg10 mi
1:50 AM54 °FClear.1 mph94%29.77 "Hg10 mi
1:20 AM54 °FClear.1 mph94%29.77 "Hg10 mi
12:20 AM54 °FClear.2 mph100%29.77 "Hg10 mi
11:50 PM
Sun, Aug 2
54 °FPassing clouds.6 mph100%29.80 "HgN/A
11:20 PM54 °FPartly sunny.2 mph100%29.77 "HgN/A
10:50 PM54 °FSunny.2 mph100%29.77 "Hg10 mi
10:20 PM55 °FOvercast.2 mph94%29.77 "HgN/A
9:50 PM57 °FPartly sunny.2 mph88%29.77 "HgN/A
9:20 PM57 °FBroken clouds.2 mph88%29.77 "HgN/A
8:50 PM57 °FMore clouds than sun.3 mph88%29.77 "HgN/A
8:20 PM57 °FPartly sunny.2 mph88%29.77 "HgN/A
7:50 PM57 °FPartly sunny.2 mph82%29.77 "HgN/A
7:20 PM57 °FSunny.2 mph82%29.77 "Hg10 mi
6:50 PM57 °FPartly sunny.5 mph88%29.77 "HgN/A
6:20 PM57 °FSprinkles. Broken clouds.3 mph88%29.77 "HgN/A
5:50 PM55 °FLight rain. Partly sunny.8 mph94%29.77 "HgN/A
5:20 PM57 °FPartly sunny.3 mph88%29.77 "HgN/A
4:50 PM57 °FSunny.5 mph88%29.77 "Hg10 mi
4:20 PM55 °FSprinkles. Partly sunny.10 mph94%29.77 "HgN/A
3:50 PM57 °FPartly sunny.10 mph82%29.77 "HgN/A
3:20 PM59 °FBroken clouds.6 mph68%29.77 "HgN/A
2:50 PM59 °FSunny.5 mph72%29.77 "Hg10 mi
2:20 PM59 °FPartly sunny.3 mph77%29.77 "HgN/A
1:50 PM59 °FPartly sunny.6 mph72%29.77 "HgN/A
1:20 PM57 °FSunny.6 mph82%29.77 "Hg10 mi
12:50 PM57 °FBroken clouds.3 mph82%29.77 "HgN/A
12:20 PM55 °FSprinkles. Partly sunny.5 mph88%29.77 "HgN/A
11:50 AM55 °FBroken clouds.6 mph94%29.77 "HgN/A
11:20 AM55 °FBroken clouds.2 mph88%29.74 "HgN/A
10:50 AM54 °FLight rain. Cloudy.5 mph94%29.74 "Hg3 mi
10:20 AM55 °FMostly cloudy.5 mph88%29.74 "HgN/A
9:50 AM54 °FCloudy.3 mph94%29.74 "HgN/A
9:20 AM54 °FSprinkles. Cloudy.2 mph94%29.74 "HgN/A
8:50 AM54 °FCloudy.3 mph94%29.74 "HgN/A
8:20 AM52 °FFog.2 mph100%29.74 "Hg2 mi
7:50 AM52 °FMostly cloudy.2 mph100%29.74 "HgN/A
7:20 AM52 °FSprinkles. More clouds than sun.3 mph100%29.74 "HgN/A
6:50 AM52 °FSprinkles. More clouds than sun.2 mph100%29.74 "HgN/A
6:20 AM52 °FMostly cloudy.3 mph94%29.74 "HgN/A
5:50 AM52 °FMostly cloudy.5 mph94%29.74 "HgN/A
5:20 AM52 °FPartly sunny.3 mph100%29.74 "HgN/A
4:50 AM50 °FOvercast.2 mph100%29.74 "HgN/A
4:20 AM50 °FOvercast.2 mph100%29.74 "HgN/A
3:20 AM50 °FClear.3 mph100%29.74 "Hg10 mi
Weather by CustomWeather, © 2015

See weather overviewHow to use our weather pages